Home   Weather   Minot   Past weeks
Flag for USA

Past Weather in Minot, North Dakota, USA — Yesterday and Last 2 Weeks

Now
36 °F

Overcast.


Feels Like: 27 °F
Forecast: 34 / 24 °F
Wind: 15 mph from Northeast

Location: Minot International Airport

Current Time: Mar 24, 2019 at 2:27:28 am

Latest Report: Mar 24, 2019 at 1:54 am


Visibility: 10 mi

Pressure: 30.19 "Hg

Humidity: 82%

Dew Point: 31 °F

Location of MinotLocation

Past Weather in Minot — Graph

°F

Minot Temperature Yesterday

Maximum temperature yesterday: 56 °F (at 4:54 pm)
Minimum temperature yesterday: 31 °F (at 12:54 am)
Average temperature yesterday: 43 °F

High & Low Weather Summary for the Past Weeks

 TemperatureHumidityPressure
High56 °F (Mar 23, 4:54 pm)93% (Mar 9, 5:54 am)30.43 "Hg (Mar 9, 5:54 am)
Low7 °F (Mar 11, 12:54 am)50% (Mar 22, 4:54 pm)29.57 "Hg (Mar 12, 5:54 pm)
Average30 °F75%30.10 "Hg
* Reported Mar 8 11:54 pm — Mar 24 12:54 am, Minot. Weather by CustomWeather, © 2019

Note: Actual official high and low records may vary slightly from our data, if they occured in-between our weather recording intervals... More about our weather records

Advertising

Minot Weather History for the Previous 24 Hours

Scroll right to see more
 ConditionsComfort  
Time TempWeatherWind HumidityBarometerVisibility
12:54 am
Sun, Mar 24
39 °FOvercast.18 mph79%30.16 "Hg10 mi
11:54 pm
Sat, Mar 23
38 °FMostly cloudy.No wind90%30.13 "Hg10 mi
10:54 pm38 °FPassing clouds.8 mph90%30.10 "Hg10 mi
9:54 pm38 °FClear.7 mph90%30.08 "Hg8 mi
8:54 pm43 °FClear.No wind86%30.05 "Hg10 mi
7:54 pm47 °FSunny.No wind77%30.02 "Hg10 mi
6:54 pm53 °FSunny.5 mph66%29.99 "Hg10 mi
5:54 pm55 °FSunny.7 mph62%29.99 "Hg10 mi
4:54 pm56 °FSunny.10 mph60%29.98 "Hg10 mi
3:54 pm54 °FSunny.10 mph62%29.98 "Hg10 mi
2:54 pm52 °FSunny.9 mph64%29.99 "Hg10 mi
1:54 pm52 °FSunny.9 mph61%30.01 "Hg10 mi
12:54 pm50 °FSunny.12 mph63%30.03 "Hg10 mi
11:54 am47 °FSunny.10 mph66%30.03 "Hg10 mi
10:54 am42 °FSunny.9 mph71%30.03 "Hg10 mi
9:54 am41 °FSunny.6 mph70%30.03 "Hg10 mi
8:54 am37 °FSunny.3 mph76%30.04 "Hg10 mi
7:54 am35 °FSunny.3 mph78%30.03 "Hg10 mi
6:54 am36 °FClear.8 mph75%30.01 "Hg10 mi
5:54 am36 °FClear.8 mph73%30.00 "Hg10 mi
4:54 am35 °FClear.6 mph72%30.01 "Hg10 mi
3:54 am35 °FClear.12 mph72%30.01 "Hg10 mi
2:54 am37 °FClear.15 mph67%30.01 "Hg10 mi
Weather by CustomWeather, © 2019

See weather overview